Regional Weather Roundup
Issued by NWS

Home | Current Version | Previous Version | Graphics & Text | Print | Product List | Glossary On
Versions: 1 2 3 4 5 6 7 8 9 10 11 12 13 14 15 16 17 18 19 20 21 22 23 24 25 26 27 28 29 30 31 32 33 34 35 36 37 38 39 40 41 42 43 44 45 46 47 48 49 50
000
ASUS43 KTOP 182259
RWRKS

WEATHER ROUNDUP FOR KANSAS
NATIONAL WEATHER SERVICE GOODLAND KS
600 PM CDT THU SEP 18 2014

NOTE:  "FAIR" INDICATES FEW OR NO CLOUDS BELOW 12,000 FEET WITH NO
SIGNIFICANT WEATHER AND/OR OBSTRUCTIONS TO VISIBILITY.

KSZ001>006-013>018-027>032-041>047-190000-
NORTHWEST KANSAS

CITY           SKY/WX    TMP DP  RH WIND       PRES   REMARKS
GOODLAND       SUNNY     85  60  42 SE12      29.91F
HAYS           SUNNY     88  63  42 S22G28    29.86S
HILL CITY      SUNNY     81  66  60 E6        29.88F
RUSSELL        SUNNY     84  61  45 S15G23    29.86F
$$

KSZ061>065-074>080-084>089-190000-
SOUTHWEST KANSAS

CITY           SKY/WX    TMP DP  RH WIND       PRES   REMARKS
DODGE CITY     SUNNY     86  60  41 S16G28    29.91S
ELKHART          N/A     84  56  38 SE16        N/A
GARDEN CITY    SUNNY     88  54  31 S18       29.90S
GREAT BEND     SUNNY     88  57  35 S16       29.88S
LIBERAL        SUNNY     88  55  33 S13G21    29.93S
$$

KSZ066>073-081>083-090>101-190000-
SOUTHEAST KANSAS

CITY           SKY/WX    TMP DP  RH WIND       PRES   REMARKS
CHANUTE        SUNNY     76  65  68 SE10      29.94S
COFFEYVILLE    SUNNY     75  64  68 E13       29.92S
HUTCHINSON     SUNNY     88  56  33 S15       29.89F
NEWTON         SUNNY     84  55  37 S12       29.94R
PARSONS        SUNNY     75  65  70 MISG      29.94F
WICHITA INTL   MOSUNNY   89  54  30 S9        29.89F
WICHITA JABRA  SUNNY     83  59  44 E15       29.90S
WINFIELD       SUNNY     83  62  49 E16G23    29.91R
$$

KSZ007>012-019>026-033>040-048>060-102>105-190000-
NORTHEAST KANSAS

CITY           SKY/WX    TMP DP  RH WIND       PRES   REMARKS
CONCORDIA      SUNNY     80  63  55 S13       29.90F
EMPORIA        SUNNY     75  66  73 E10       29.94S
LAWRENCE       MOSUNNY   67  61  81 E8        29.99S HAZE
MANHATTAN      SUNNY     78  65  63 E13       29.93S
OLATHE IND     CLOUDY    67  62  84 E10       30.00S
OLATHE EXE     CLOUDY    66  62  87 E7        30.00S
SALINA         SUNNY     85  62  46 S7        29.89F
TOPEKA BILLARD CLOUDY    68  64  87 E15       29.98S
TOPEKA FORBES  CLOUDY    69  62  78 E12       29.97S
$$



USA.gov is the U.S. government's official web portal to all federal, state and local government web resources and services.